Total_Precipitation_Accumulation
0.05 0.14 0.37 0.60 0.98 1.48 1.46 0.97 0.77 0.55 0.44 0.45 0.35 0.33 0.42 0.63 0.98 1.73 1.57 1.11 0.74 0.70 0.88 1.10 1.19 1.23 1.21 1.21 1.40 1.49 1.51 1.54 1.58 1.71 1.81 1.87 1.88 1.75 1.62 1.63 1.66 1.73 1.69 1.65 1.63 1.60 1.51 1.34 1.30
0.07 0.17 0.37 0.64 1.17 1.65 1.38 0.74 0.50 0.39 0.35 0.38 0.36 0.36 0.53 0.59 0.57 0.92 1.04 0.90 0.59 0.59 0.72 0.82 0.98 1.02 1.00 1.04 1.11 1.27 1.38 1.34 1.44 1.67 1.77 1.83 1.78 1.68 1.62 1.55 1.57 1.65 1.73 1.78 1.65 1.53 1.39 1.20 1.15
0.09 0.17 0.34 0.62 1.00 1.19 0.99 0.59 0.37 0.30 0.36 0.49 0.52 0.43 0.65 0.69 0.61 0.82 0.83 0.61 0.52 0.61 0.77 0.83 0.81 0.75 0.72 0.74 0.85 1.04 1.21 1.33 1.42 1.52 1.57 1.60 1.57 1.57 1.50 1.44 1.54 1.67 1.85 1.89 1.66 1.42 1.25 1.11 0.99
0.08 0.18 0.28 0.48 0.60 0.55 0.52 0.43 0.33 0.32 0.36 0.47 0.57 0.59 0.75 0.63 0.51 0.62 0.64 0.48 0.43 0.56 0.62 0.62 0.62 0.56 0.58 0.60 0.71 0.86 0.99 1.15 1.29 1.32 1.35 1.45 1.57 1.55 1.46 1.50 1.64 1.82 1.91 1.75 1.51 1.28 1.13 1.03 0.91
0.08 0.17 0.28 0.45 0.52 0.48 0.39 0.37 0.33 0.40 0.44 0.52 0.58 0.80 0.93 0.77 0.55 0.49 0.49 0.38 0.28 0.35 0.43 0.47 0.52 0.48 0.51 0.55 0.66 0.81 0.95 1.05 1.06 1.15 1.39 1.52 1.56 1.57 1.62 1.64 1.77 1.84 1.79 1.59 1.46 1.28 1.18 1.02 0.94
0.07 0.13 0.22 0.36 0.44 0.44 0.36 0.30 0.26 0.34 0.49 0.66 0.72 0.85 1.04 0.93 0.68 0.55 0.42 0.36 0.28 0.26 0.38 0.48 0.53 0.49 0.49 0.52 0.62 0.75 0.85 0.96 1.02 1.14 1.30 1.39 1.41 1.47 1.59 1.69 1.80 1.75 1.70 1.52 1.38 1.22 1.15 1.09 1.01
0.05 0.09 0.14 0.26 0.35 0.33 0.29 0.29 0.26 0.30 0.48 0.67 0.70 0.97 1.16 1.17 0.88 0.63 0.51 0.50 0.51 0.40 0.46 0.58 0.61 0.61 0.63 0.70 0.80 0.89 0.95 1.05 1.13 1.18 1.23 1.23 1.28 1.38 1.52 1.68 1.78 1.76 1.61 1.34 1.27 1.17 1.11 1.06 1.03
0.07 0.06 0.09 0.16 0.21 0.29 0.24 0.24 0.25 0.32 0.37 0.48 0.58 0.84 1.14 1.10 0.89 0.80 0.91 0.90 0.96 0.76 0.62 0.60 0.71 0.83 0.80 0.79 0.93 1.02 1.08 1.13 1.18 1.22 1.26 1.32 1.39 1.43 1.54 1.65 1.85 1.88 1.64 1.36 1.26 1.13 1.01 1.02 1.07
0.04 0.10 0.10 0.11 0.14 0.20 0.17 0.23 0.24 0.21 0.27 0.36 0.48 0.66 0.88 0.86 0.85 1.07 1.35 1.23 1.27 1.11 0.85 0.70 0.64 0.79 0.92 0.90 0.93 1.06 1.15 1.21 1.31 1.44 1.50 1.59 1.72 1.68 1.88 1.96 2.15 2.13 1.85 1.66 1.50 1.32 1.19 1.10 1.08
0.02 0.09 0.08 0.07 0.07 0.11 0.13 0.19 0.20 0.24 0.46 0.71 0.84 0.88 0.97 1.20 1.21 1.33 1.44 1.36 1.32 1.28 1.08 0.93 0.81 0.76 0.86 0.90 1.11 1.39 1.37 1.47 1.65 1.88 1.89 2.11 2.23 2.22 1.91 2.28 2.56 2.53 2.38 2.16 2.07 1.92 1.60 1.33 1.26
0.01 0.05 0.07 0.07 0.05 0.06 0.10 0.11 0.16 0.27 0.61 0.98 1.20 1.27 1.29 1.50 1.70 1.76 1.83 1.85 1.72 1.60 1.34 1.12 1.04 1.05 1.03 1.18 1.19 1.42 1.71 1.93 1.97 1.93 2.01 2.25 2.20 2.07 2.01 2.24 2.39 2.42 2.42 2.42 2.60 2.50 2.08 2.02 2.10
0.01 0.02 0.03 0.05 0.03 0.04 0.06 0.08 0.17 0.39 0.78 0.94 1.15 1.30 1.34 1.73 1.84 1.86 2.29 2.37 1.96 1.66 1.59 1.48 1.40 1.38 1.44 1.31 1.44 1.49 1.59 1.77 1.87 1.98 2.01 2.18 2.45 2.42 2.30 2.39 2.34 2.50 2.60 2.94 2.81 2.94 2.74 2.44 2.16
0.01 0.01 0.02 0.03 0.03 0.03 0.05 0.09 0.18 0.37 0.59 0.68 0.88 1.05 1.10 1.61 1.93 2.16 2.67 2.63 2.33 2.12 2.00 1.84 1.80 1.86 1.84 1.81 1.84 1.68 1.71 1.77 1.86 2.02 2.22 2.28 2.41 2.43 2.41 2.51 2.56 2.28 2.32 2.61 2.88 2.80 2.93 2.91 2.68
0.01 0.02 0.04 0.04 0.04 0.04 0.05 0.12 0.23 0.43 0.56 0.78 0.79 0.95 1.18 1.57 1.87 2.29 2.63 2.88 2.73 2.47 2.28 2.14 2.10 2.19 2.26 2.23 2.28 2.18 1.90 1.99 1.96 2.18 2.25 2.35 2.41 2.50 2.66 2.74 2.70 2.38 2.30 2.57 2.77 2.66 2.99 2.93 2.87
0.02 0.06 0.09 0.08 0.06 0.07 0.08 0.26 0.48 0.58 0.70 0.86 0.98 1.08 1.29 1.65 2.15 2.43 2.70 3.01 3.04 2.96 2.78 2.55 2.43 2.59 2.81 2.88 2.81 2.59 2.36 2.14 2.15 2.25 2.32 2.43 2.40 2.58 2.58 2.55 2.58 2.57 2.45 2.65 2.75 2.76 2.90 2.76 2.65
0.05 0.07 0.13 0.14 0.10 0.10 0.16 0.58 0.72 0.60 0.78 0.97 1.05 1.28 1.58 1.96 2.40 2.91 3.08 2.98 3.00 3.14 3.09 2.80 2.57 3.01 3.36 3.39 3.33 3.06 2.77 2.44 2.33 2.38 2.47 2.53 2.59 2.68 2.80 2.58 2.48 2.71 2.66 2.82 3.12 3.05 3.16 3.26 3.13
0.07 0.11 0.13 0.18 0.13 0.13 0.26 0.74 0.72 0.54 0.65 0.84 1.07 1.31 1.74 2.25 2.61 2.79 2.85 3.04 3.17 3.28 3.24 3.15 3.24 3.33 3.46 3.56 3.65 3.39 3.13 2.87 2.60 2.50 2.50 2.60 2.74 2.84 3.15 2.99 2.96 2.90 2.89 2.94 2.64 3.25 3.53 3.57 3.40
0.06 0.09 0.16 0.18 0.16 0.19 0.29 0.55 0.64 0.64 0.79 0.92 1.22 1.43 1.59 1.98 2.43 2.53 2.66 3.13 3.23 3.42 3.54 3.45 3.56 3.69 3.94 4.14 4.30 3.90 3.50 3.20 2.90 2.72 2.77 2.82 3.01 3.14 3.38 3.17 3.07 2.98 3.11 3.12 3.17 3.61 3.57 3.32 3.32
0.04 0.08 0.17 0.19 0.17 0.23 0.33 0.54 0.74 0.83 0.98 1.28 1.48 1.47 1.45 1.75 2.24 2.60 2.86 3.05 3.40 3.61 3.79 3.78 3.99 4.38 4.70 4.54 4.21 4.00 3.72 3.48 3.24 2.97 2.86 2.89 2.86 3.05 3.36 3.17 3.37 3.26 3.12 3.11 3.14 3.43 3.51 3.24 3.44
0.03 0.07 0.16 0.20 0.19 0.30 0.44 0.67 0.84 1.04 1.27 1.36 1.28 1.28 1.42 1.80 2.30 2.66 2.94 3.10 3.37 3.65 4.07 4.20 4.39 4.73 4.85 4.70 4.56 4.37 4.21 3.82 3.67 3.50 3.29 2.93 2.73 2.84 2.91 3.22 3.03 3.08 3.19 3.11 3.23 3.50 3.39 3.01 3.46
0.05 0.08 0.15 0.16 0.24 0.40 0.51 0.94 1.12 1.28 1.40 1.39 1.32 1.51 1.52 1.60 2.03 2.31 2.43 2.62 2.81 2.95 3.21 3.50 3.98 4.48 4.66 4.72 4.63 4.56 4.57 4.07 3.78 3.61 3.39 2.99 2.72 2.65 2.82 2.98 3.05 3.08 2.98 3.06 3.26 3.32 3.36 3.23 3.32
0.07 0.07 0.08 0.12 0.23 0.51 0.58 1.16 1.40 1.60 1.72 1.58 1.51 1.43 1.39 1.63 1.98 1.99 1.83 1.98 2.24 2.24 2.56 2.98 3.42 3.77 3.99 4.08 4.07 4.08 4.03 3.90 3.80 3.64 3.23 2.95 2.70 2.61 2.70 2.83 2.90 2.94 2.79 2.91 2.75 2.89 3.34 3.45 3.21
0.05 0.06 0.09 0.14 0.25 0.47 0.51 0.87 1.41 1.80 1.98 1.60 1.49 1.36 1.41 1.64 1.68 1.63 1.64 1.75 1.92 2.09 2.41 2.72 3.04 3.33 3.48 3.57 3.63 3.71 3.60 3.60 3.49 3.29 3.05 2.80 2.62 2.47 2.27 2.38 2.64 2.72 2.63 2.59 2.62 2.86 2.99 2.97 2.95
0.05 0.09 0.17 0.25 0.45 0.80 0.66 0.78 1.32 1.73 1.59 1.39 1.32 1.11 1.21 1.40 1.48 1.53 1.62 1.75 1.87 2.18 2.54 2.83 3.05 3.27 3.34 3.12 3.01 3.00 3.03 3.10 3.04 2.85 2.65 2.42 2.29 2.14 1.96 2.04 2.33 2.43 2.45 2.43 2.41 2.49 2.56 2.61 2.65
0.09 0.18 0.61 1.02 1.34 1.22 0.76 0.87 1.47 1.38 1.04 0.97 1.06 1.04 1.02 1.07 1.21 1.33 1.52 1.72 1.90 2.02 2.12 2.56 2.98 3.14 3.05 2.79 2.60 2.51 2.61 2.72 2.64 2.49 2.41 2.28 2.07 1.91 1.89 1.94 2.08 2.10 2.14 2.13 2.22 2.29 2.34 2.50 2.59
0.14 0.25 0.71 1.00 1.07 1.06 0.83 1.25 1.77 1.37 0.92 0.78 0.89 0.88 0.78 0.73 0.70 0.79 0.98 1.09 1.25 1.30 1.32 1.50 1.77 2.01 2.09 1.98 1.98 2.03 2.06 2.13 2.11 2.26 2.12 2.09 1.97 1.81 1.84 1.77 1.75 1.82 1.86 1.86 2.17 2.24 2.36 2.51 2.59
0.24 0.29 0.31 0.52 0.72 1.07 1.09 1.31 1.41 1.18 0.92 0.88 0.96 0.87 0.69 0.65 0.60 0.67 0.78 0.83 0.93 0.97 1.01 1.15 1.40 1.64 1.68 1.68 1.71 1.76 1.77 1.79 1.81 1.86 1.81 1.78 1.80 1.71 1.70 1.69 1.80 1.78 1.82 1.93 2.14 2.18 2.26 2.49 2.54
0.21 0.29 0.44 0.70 0.94 1.09 1.16 1.51 1.67 1.50 1.25 1.09 1.05 0.92 0.71 0.58 0.56 0.63 0.74 0.78 0.89 1.01 1.15 1.27 1.38 1.49 1.49 1.49 1.49 1.44 1.52 1.53 1.56 1.55 1.48 1.49 1.57 1.58 1.56 1.58 1.66 1.72 1.75 1.86 2.08 2.10 2.18 2.31 2.34
0.23 0.31 0.47 0.65 0.71 0.94 1.30 1.45 1.23 1.19 1.17 1.25 1.20 1.00 0.76 0.58 0.53 0.59 0.71 0.77 0.85 0.97 1.11 1.26 1.35 1.44 1.42 1.37 1.43 1.49 1.49 1.51 1.49 1.45 1.38 1.44 1.50 1.53 1.53 1.57 1.66 1.71 1.75 1.87 2.01 2.00 2.12 2.11 2.09
0.22 0.33 0.48 0.73 0.78 0.82 0.99 1.14 0.76 0.79 0.92 1.00 0.99 0.79 0.62 0.55 0.53 0.61 0.73 0.78 0.91 0.99 1.06 1.09 1.18 1.32 1.33 1.34 1.46 1.65 1.62 1.61 1.58 1.44 1.37 1.43 1.44 1.46 1.49 1.58 1.65 1.63 1.72 1.90 2.00 1.98 2.13 2.15 2.08